Anniston, AL

6:28 AM CST on November 19, 2019 (GMT -0600)
Anniston Metro

Weather History for KANB - September, 2019

Change the Weather History Date:

Wednesday, September 25, 2019

  Actual Average Record
Temperature  
Mean Temperature 75 °F 70 °F  
Max Temperature 94 °F 81 °F 98 °F (2016)
Min Temperature 55 °F 59 °F 42 °F (1990)
Degree Days  
Heating Degree Days 0    
Month to date heating degree days 0  
Since 1 July heating degree days 0  
Cooling Degree Days 9    
Growing Degree Days 24 (Base 50)    
Moisture  
Dew Point 61 °F    
Average Humidity 63    
Maximum Humidity 93    
Minimum Humidity 32    
Precipitation  
Precipitation 0.00 in 0.10 in 2.30 in (1997)
Month to date precipitation 0.42 2.43  
Year to date precipitation 39.59 37.35  
Sea Level Pressure  
Sea Level Pressure 29.89 in    
Wind  
Wind Speed 2 mph (West)    
Max Wind Speed 13 mph    
Max Gust Speed 17 mph    
Visibility 10 miles    
Events      
T = Trace of Precipitation, MM = Missing Value Source: NWS Daily Summary

Daily Weather History Graph

Daily Weather History Graph

Search for Another Location

Airport or City:

Astronomy

Sep. 25, 2019 Rise Set
Actual Time 6:33 AM CDT 6:36 PM CDT
Civil Twilight 6:08 AM CDT 7:01 PM CDT
Nautical Twilight 5:39 AM CDT 7:29 PM CDT
Astronomical Twilight 5:10 AM CDT 7:59 PM CDT
Moon 2:42 AM CDT (9/25) 4:54 PM CDT (9/25)
Length of Visible Light 12h 52m
Length of Day
12h 02m
Waning Crescent, 14% of the Moon is Illuminated
Sep 25
Waning Crescent
Sep 28
New
Oct 5
First Quarter
Oct 13
Full
Oct 21
Last Quarter

Hourly Weather History & Observations

Time (CDT) Temp. Heat Index Dew Point Humidity Pressure Visibility Wind Dir Wind Speed Gust Speed Precip Events Conditions
12:53 AM 60.1 °F - 55.9 °F 86% 29.88 in 10.0 mi Calm Calm - N/A   Clear
1:53 AM 60.1 °F - 55.0 °F 83% 29.87 in 10.0 mi Calm Calm - N/A   Clear
2:53 AM 57.9 °F - 54.0 °F 87% 29.87 in 10.0 mi Calm Calm - N/A   Clear
3:53 AM 57.0 °F - 54.0 °F 89% 29.89 in 10.0 mi Calm Calm - N/A   Clear
4:53 AM 55.9 °F - 54.0 °F 93% 29.91 in 10.0 mi Calm Calm - N/A   Clear
5:53 AM 57.0 °F - 54.0 °F 89% 29.93 in 10.0 mi Calm Calm - N/A   Clear
6:53 AM 57.9 °F - 53.1 °F 84% 29.94 in 10.0 mi Calm Calm - N/A   Clear
7:53 AM 61.0 °F - 55.0 °F 81% 29.97 in 10.0 mi East 3.5 mph - N/A   Clear
8:53 AM 70.0 °F - 55.9 °F 61% 29.97 in 10.0 mi Calm Calm - N/A   Clear
11:53 AM 88.0 °F 87.1 °F 59.0 °F 37% 29.93 in 10.0 mi SW 10.4 mph - N/A   Partly Cloudy
12:53 PM 90.0 °F 90.6 °F 63.0 °F 40% 29.90 in 10.0 mi WNW 6.9 mph - N/A   Scattered Clouds
1:53 PM 93.0 °F 94.2 °F 63.0 °F 37% 29.87 in 10.0 mi North 8.1 mph - N/A   Clear
2:53 PM 91.9 °F 93.3 °F 64.0 °F 39% 29.86 in 10.0 mi Calm Calm - N/A   Clear
3:53 PM 93.0 °F 94.6 °F 64.0 °F 38% 29.85 in 10.0 mi WSW 5.8 mph - N/A   Scattered Clouds
4:53 PM 93.0 °F 94.6 °F 64.0 °F 38% 29.84 in 10.0 mi Calm Calm - N/A   Scattered Clouds
5:53 PM 91.9 °F 93.3 °F 64.0 °F 39% 29.84 in 10.0 mi Calm Calm - N/A   Clear
6:53 PM 84.0 °F 86.5 °F 66.9 °F 56% 29.85 in 10.0 mi Calm Calm - N/A   Scattered Clouds
7:53 PM 79.0 °F - 68.0 °F 69% 29.87 in 10.0 mi Calm Calm - N/A   Clear
8:53 PM 78.1 °F - 68.0 °F 71% 29.88 in 10.0 mi Calm Calm - N/A   Mostly Cloudy
9:53 PM 75.9 °F - 68.0 °F 76% 29.88 in 10.0 mi Calm Calm - N/A   Partly Cloudy
10:53 PM 73.0 °F - 66.9 °F 81% 29.90 in 10.0 mi West 4.6 mph - N/A   Clear
11:53 PM 73.0 °F - 66.9 °F 81% 29.89 in 10.0 mi Calm Calm - N/A   Clear